Oakes, ND

3:59 AM CDT on July 25, 2016 (GMT -0500)
Oakes

Weather History for K2D5 - March, 2012

Change the Weather History Date:

Sunday, March 25, 2012

  Actual Average (KABR) Record (KABR)
Temperature  
Mean Temperature 34 °F 34 °F  
Max Temperature 41 °F 45 °F 81 °F (1925)
Min Temperature 28 °F 24 °F -8 °F (1964)
Degree Days  
Heating Degree Days 30 31  
Month to date heating degree days 912  
Since 1 July heating degree days 7375  
Cooling Degree Days 0 0  
Month to date cooling degree days 0  
Year to date cooling degree days 0  
Moisture  
Dew Point 28 °F    
Average Humidity 83    
Maximum Humidity 100    
Minimum Humidity 56    
Precipitation  
Precipitation 0.00 in 0.04 in 1.48 in (1942)
Month to date precipitation 0.88  
Year to date precipitation 1.90  
Snow  
Snow 0.00 in - - ()
Month to date snowfall  
Since 1 July snowfall  
Snow Depth -    
Sea Level Pressure  
Sea Level Pressure 30.24 in    
Wind  
Wind Speed 13 mph (NE)    
Max Wind Speed 23 mph    
Max Gust Speed 28 mph    
Visibility 10 miles    
Events      
T = Trace of Precipitation, MM = Missing Value Source: NWS Daily Summary

Daily Weather History Graph

Daily Weather History Graph

Search for Another Location

Airport or City:

Trip Planner

Search our weather history database for the weather conditions in past years. The results will help you decide how hot, cold, wet, or windy it might be!

Date:

Astronomy

Mar. 25, 2012 Rise Set
Actual Time 7:24 AM CDT 7:52 PM CDT
Civil Twilight 6:54 AM CDT 8:22 PM CDT
Nautical Twilight 6:19 AM CDT 8:58 PM CDT
Astronomical Twilight 5:42 AM CDT 9:35 PM CDT
Moon 8:25 AM CDT 11:23 PM CDT
Length of Visible Light 13h 27m
Length of Day
12h 27m
Waxing Crescent, 9% of the Moon is Illuminated
Mar 25
Waxing Crescent
Mar 30
First Quarter
Apr 6
Full
Apr 13
Last Quarter
Apr 21
New

Hourly Weather History & Observations

Time (CDT) Temp. Windchill Dew Point Humidity Pressure Visibility Wind Dir Wind Speed Gust Speed Precip Events Conditions
12:15 AM 32.0 °F 24.2 °F 32.0 °F 100% 30.23 in 10.0 mi NNE 9.2 mph - N/A   Unknown
12:35 AM 32.0 °F 23.0 °F 32.0 °F 100% 30.23 in 10.0 mi North 11.5 mph - N/A   Unknown
12:55 AM 32.0 °F 24.2 °F 32.0 °F 100% 30.23 in 10.0 mi North 9.2 mph - N/A   Unknown
1:15 AM 28.4 °F 20.4 °F 28.4 °F 100% 30.23 in 10.0 mi NNE 8.1 mph - N/A   Unknown
1:35 AM 30.2 °F 21.9 °F 30.2 °F 100% 30.23 in 10.0 mi North 9.2 mph - N/A   Unknown
1:55 AM 28.4 °F 19.1 °F 28.4 °F 100% 30.24 in 10.0 mi North 10.4 mph - N/A   Unknown
2:15 AM 30.2 °F 21.9 °F 30.2 °F 100% 30.23 in 10.0 mi NNE 9.2 mph - N/A   Unknown
2:35 AM 28.4 °F 20.4 °F 28.4 °F 100% 30.23 in 10.0 mi North 8.1 mph - N/A   Unknown
2:55 AM 28.4 °F 22.2 °F 28.4 °F 100% 30.24 in 10.0 mi North 5.8 mph - N/A   Unknown
3:15 AM 30.2 °F 25.4 °F 30.2 °F 100% 30.24 in 10.0 mi North 4.6 mph - N/A   Unknown
3:35 AM 32.0 °F 23.6 °F 32.0 °F 100% 30.23 in 10.0 mi NNE 10.4 mph - N/A   Unknown
3:55 AM 32.0 °F 23.0 °F 32.0 °F 100% 30.23 in 10.0 mi NNE 11.5 mph - N/A   Unknown
4:15 AM 32.0 °F 22.5 °F 32.0 °F 100% 30.22 in 10.0 mi NNE 12.7 mph - N/A   Unknown
4:35 AM 32.0 °F 23.0 °F 32.0 °F 100% 30.22 in 10.0 mi NE 11.5 mph - N/A   Unknown
4:55 AM 32.0 °F 22.5 °F 32.0 °F 100% 30.22 in 10.0 mi NNE 12.7 mph - N/A   Unknown
5:15 AM 32.0 °F 21.6 °F 32.0 °F 100% 30.23 in 10.0 mi NNE 15.0 mph - N/A   Unknown
5:35 AM 32.0 °F 21.6 °F 32.0 °F 100% 30.24 in 10.0 mi NE 15.0 mph 20.7 mph N/A   Unknown
5:55 AM 32.0 °F 22.1 °F 32.0 °F 100% 30.25 in 10.0 mi NE 13.8 mph - N/A   Unknown
6:15 AM 32.0 °F 21.6 °F 32.0 °F 100% 30.25 in 10.0 mi NNE 15.0 mph 18.4 mph N/A   Unknown
6:35 AM 30.2 °F 19.8 °F 30.2 °F 100% 30.26 in 10.0 mi NNE 13.8 mph - N/A   Unknown
6:55 AM 30.2 °F 19.3 °F 30.2 °F 100% 30.26 in 10.0 mi NE 15.0 mph - N/A   Unknown
7:15 AM 30.2 °F 18.9 °F 30.2 °F 100% 30.26 in 10.0 mi NNE 16.1 mph - N/A   Unknown
7:35 AM 30.2 °F 18.5 °F 30.2 °F 100% 30.26 in 10.0 mi NNE 17.3 mph 20.7 mph N/A   Unknown
7:55 AM 30.2 °F 19.3 °F 30.2 °F 100% 30.27 in 10.0 mi NNE 15.0 mph 19.6 mph N/A   Unknown
8:15 AM 30.2 °F 18.9 °F 30.2 °F 100% 30.27 in 10.0 mi NE 16.1 mph 20.7 mph N/A   Unknown
8:35 AM 28.4 °F 16.2 °F 28.4 °F 100% 30.28 in 10.0 mi NE 17.3 mph - N/A   Unknown
8:55 AM 28.4 °F 16.2 °F 28.4 °F 100% 30.28 in 10.0 mi NE 17.3 mph 25.3 mph N/A   Unknown
9:15 AM 28.4 °F 17.0 °F 28.4 °F 100% 30.28 in 10.0 mi NE 15.0 mph - N/A   Unknown
9:35 AM 28.4 °F 16.6 °F 28.4 °F 100% 30.29 in 10.0 mi NE 16.1 mph 21.9 mph N/A   Unknown
9:55 AM 28.4 °F 16.2 °F 28.4 °F 100% 30.28 in 10.0 mi NE 17.3 mph - N/A   Unknown
10:15 AM 30.2 °F 17.8 °F 28.4 °F 93% 30.29 in 10.0 mi NE 19.6 mph 25.3 mph N/A   Unknown
10:35 AM 32.0 °F 20.8 °F 28.4 °F 87% 30.28 in 10.0 mi NE 17.3 mph 24.2 mph N/A   Unknown
10:55 AM 32.0 °F 19.8 °F 24.8 °F 75% 30.27 in 10.0 mi NE 20.7 mph 27.6 mph N/A   Unknown
11:15 AM 32.0 °F 19.8 °F 24.8 °F 75% 30.27 in 10.0 mi NNE 20.7 mph 27.6 mph N/A   Unknown
11:35 AM 33.8 °F 21.9 °F 24.8 °F 70% 30.27 in 10.0 mi NE 21.9 mph - N/A   Unknown
11:55 AM 33.8 °F 23.2 °F 24.8 °F 70% 30.27 in 10.0 mi NE 17.3 mph 26.5 mph N/A   Unknown
12:15 PM 33.8 °F 22.5 °F 23.0 °F 65% 30.26 in 10.0 mi NNE 19.6 mph 26.5 mph N/A   Unknown
12:35 PM 35.6 °F 25.2 °F 23.0 °F 60% 30.26 in 10.0 mi NNE 18.4 mph 24.2 mph N/A   Unknown
12:55 PM 35.6 °F 25.5 °F 24.8 °F 65% 30.26 in 10.0 mi NE 17.3 mph 24.2 mph N/A   Unknown
1:15 PM 37.4 °F 27.8 °F 24.8 °F 60% 30.26 in 10.0 mi NE 17.3 mph 23.0 mph N/A   Unknown
1:35 PM 37.4 °F 27.5 °F 24.8 °F 60% 30.26 in 10.0 mi NE 18.4 mph - N/A   Unknown
1:55 PM 39.2 °F 28.7 °F 24.8 °F 56% 30.25 in 10.0 mi ENE 23.0 mph - N/A   Partly Cloudy
2:15 PM 41.0 °F 32.5 °F 26.6 °F 57% 30.24 in 10.0 mi NE 17.3 mph 23.0 mph N/A   Clear
2:35 PM 41.0 °F 32.5 °F 26.6 °F 57% 30.23 in 10.0 mi NE 17.3 mph 23.0 mph N/A   Clear
2:55 PM 39.2 °F 29.8 °F 26.6 °F 61% 30.23 in 10.0 mi NNE 18.4 mph 24.2 mph N/A   Partly Cloudy
3:15 PM 41.0 °F 32.2 °F 26.6 °F 57% 30.22 in 10.0 mi NE 18.4 mph 25.3 mph N/A   Mostly Cloudy
3:35 PM 41.0 °F 31.9 °F 26.6 °F 57% 30.20 in 10.0 mi NE 19.6 mph 25.3 mph N/A   Overcast
3:55 PM 41.0 °F 31.6 °F 26.6 °F 57% 30.20 in 10.0 mi NE 20.7 mph - N/A   Overcast
4:15 PM 41.0 °F 31.6 °F 26.6 °F 57% 30.20 in 10.0 mi NE 20.7 mph 26.5 mph N/A   Overcast
4:35 PM 41.0 °F 32.2 °F 26.6 °F 57% 30.21 in 10.0 mi NE 18.4 mph 23.0 mph N/A   Overcast
4:55 PM 41.0 °F 32.2 °F 26.6 °F 57% 30.20 in 10.0 mi NE 18.4 mph 24.2 mph N/A   Overcast
5:15 PM 41.0 °F 32.2 °F 26.6 °F 57% 30.19 in 10.0 mi ENE 18.4 mph 23.0 mph N/A   Overcast
5:55 PM 39.2 °F 29.6 °F 28.4 °F 65% 30.20 in 10.0 mi NE 19.6 mph 23.0 mph N/A   Clear
6:15 PM 39.2 °F 29.8 °F 26.6 °F 61% 30.20 in 10.0 mi NE 18.4 mph - N/A   Clear
6:35 PM 41.0 °F 32.2 °F 26.6 °F 57% 30.19 in 10.0 mi NE 18.4 mph - N/A   Mostly Cloudy
6:55 PM 39.2 °F 30.8 °F 26.6 °F 61% 30.19 in 10.0 mi NE 15.0 mph 21.9 mph N/A   Overcast
7:15 PM 39.2 °F 30.5 °F 24.8 °F 56% 30.19 in 10.0 mi NE 16.1 mph - N/A   Overcast
7:35 PM 39.2 °F 30.2 °F 24.8 °F 56% 30.18 in 10.0 mi NE 17.3 mph 23.0 mph N/A   Overcast
7:55 PM 39.2 °F 31.6 °F 26.6 °F 61% 30.19 in 10.0 mi NE 12.7 mph 17.3 mph N/A   Overcast
8:15 PM 39.2 °F 32.0 °F 26.6 °F 61% 30.18 in 10.0 mi NE 11.5 mph - N/A   Overcast
8:35 PM 39.2 °F 32.0 °F 26.6 °F 61% 30.19 in 10.0 mi NE 11.5 mph - N/A   Overcast
8:55 PM 39.2 °F 31.6 °F 26.6 °F 61% 30.19 in 10.0 mi NE 12.7 mph - N/A   Overcast
9:15 PM 39.2 °F 30.5 °F 26.6 °F 61% 30.19 in 10.0 mi NE 16.1 mph - N/A   Overcast
9:35 PM 39.2 °F 31.2 °F 26.6 °F 61% 30.19 in 10.0 mi NE 13.8 mph 21.9 mph N/A   Overcast
9:55 PM 39.2 °F 30.5 °F 26.6 °F 61% 30.19 in 10.0 mi NE 16.1 mph - N/A   Overcast
10:15 PM 39.2 °F 31.6 °F 26.6 °F 61% 30.19 in 10.0 mi NE 12.7 mph - N/A   Overcast
10:35 PM 39.2 °F 31.6 °F 28.4 °F 65% 30.19 in 10.0 mi NE 12.7 mph - N/A   Overcast
10:55 PM 39.2 °F 31.6 °F 28.4 °F 65% 30.18 in 10.0 mi NE 12.7 mph - N/A   Overcast
11:15 PM 39.2 °F 31.6 °F 28.4 °F 65% 30.18 in 10.0 mi NE 12.7 mph - N/A   Overcast
11:35 PM 37.4 °F 30.3 °F 28.4 °F 70% 30.18 in 10.0 mi NE 10.4 mph - N/A   Overcast
11:55 PM 37.4 °F 29.8 °F 28.4 °F 70% 30.17 in 10.0 mi NE 11.5 mph - N/A   Overcast